Regional Weather Roundup
Issued by NWS

Home | Current Version | Previous Version | Graphics & Text | Print | Product List | Glossary On
Versions: 1 2 3 4 5 6 7 8 9 10 11 12 13 14 15 16 17 18 19 20 21 22 23 24 25 26 27 28 29 30 31 32 33 34 35 36 37 38 39 40 41 42 43 44 45 46 47 48 49 50
000
ASUS45 KSLC 271610
RWRUT

UTAH REGIONAL WEATHER ROUNDUP
NATIONAL WEATHER SERVICE SALT LAKE CITY UT
900 AM MST SAT DEC 27 2014

UTZ001>011-023>025-271700-

NORTHERN UTAH

CITY           SKY/WX    TMP DP  RH WIND       PRES   REMARKS
BRIGHAM CITY   CLEAR     11   7  85 CALM      30.36R
HILL AFB       CLEAR     14   7  71 E13       30.33R WCI   0
LOGAN          CLEAR      0  -3  87 CALM      30.35S
OGDEN          CLEAR     15   8  73 S12       30.33R WCI   2
PROVO AIRPORT  MOSUNNY   12  10  92 CALM      30.38R
SALT LAKE CITY PTCLDY    19  12  74 SE10      30.36R WCI   7
VERNAL         CLOUDY    13   6  74 CALM      30.31R HAZE
WENDOVER       PTCLDY    19  10  68 W3        30.35R
HEBER CITY     FOG        9   5  85 CALM      30.32R VSB 1/4
WEST JORDAN    CLEAR     18  14  86 S7        30.35R WCI   8

$$

UTZ012>022-026-027-271700-

SOUTHERN/CENTRAL UTAH

CITY           SKY/WX    TMP DP  RH WIND       PRES   REMARKS
BLANDING       SUNNY     19  13  75 CALM      30.32R
BRYCE CANYON   MOSUNNY    3  -2  79 NW6       30.23R WCI  -8
CEDAR CITY     MOSUNNY    6   2  83 N5        30.28S WCI  -3
DELTA          MOSUNNY    8   6  92 NE3       30.36R
MILFORD        FOG       -1  -4  87 S7        30.33R VSB 1/4 WCI -14
MOAB/CYNLANDS  SUNNY     14  10  84 CALM      30.33R
PRICE          MOSUNNY   19   4  51 N3        30.25R
ST GEORGE      MOSUNNY   28   9  43 NE5       30.39R WCI  23
KANAB          SUNNY     27   7  43 N8        30.36R WCI  18

$$

REGIONAL REPORTS     COLORADO/ARIZONA

CITY           SKY/WX    TMP DP  RH WIND       PRES   REMARKS
CRAIG, CO      CLOUDY     6   3  87 CALM      30.25R
GRAND JUNCTION SUNNY     13   8  81 E5        30.33R WCI   5
RIFLE          CLOUDY    10   5  80 CALM      30.31R
MONTROSE       CLOUDY    17  12  80 CALM      30.32R
CORTEZ         SUNNY     13   6  74 NE6       30.24R WCI   4
PAGE, AZ       SUNNY     29   5  36 CALM      30.34R
GRAND CANYON   SUNNY     21  11  65 NE10      30.24R WCI  10
KINGMAN        SUNNY     29  15  56 E6        30.32R WCI  23
FLAGSTAFF      SUNNY     19  11  70 NE15G23   30.20R WCI   5

$$

REGIONAL REPORTS    NEVADA/IDAHO/WYOMING

CITY           SKY/WX    TMP DP  RH WIND       PRES   REMARKS
LAS VEGAS, NV  SUNNY     40  10  29 NW7       30.36R
ELY            PTCLDY     2  -2  83 S10       30.31R WCI -14
ELKO           PTCLDY    12   8  84 CALM      30.34R
POCATELLO, ID  MOCLDY    21  17  84 SW7       30.30R WCI  12
BURLEY         CLOUDY    25  16  68 S10       30.29R WCI  15
EVANSTON, WY   CLEAR      6   3  87 SW12      30.20R WCI  -9
ROCK SPRINGS   MOSUNNY    6   1  80 SW18      30.16R WCI -13
KEMMERER       PTCLDY     3   1  92 W9        30.16R WCI -11

$$


USA.gov is the U.S. government's official web portal to all federal, state and local government web resources and services.